FW4245 Weather Reports


time (UTC)temp
C
wind
direction
speed
KPH
gust
KPH
rain 1hr
cm
rain 24hr
cm
rain mn
cm
humidity
%
barometer
mb
20260507183537 11 31 1.6 8.0 0.15 3.28 3.28 96 1010.9
20260507183508 11 30 1.6 8.0 0.15 3.28 3.28 95 1010.5
20260507183044 11 32 0.0 6.4 0.18 3.28 3.28 95 1011.1
20260507183003 11 35 1.6 8.0 0.18 3.28 3.28 95 1010.7
20260507182536 11 322 0.0 8.0 0.20 3.28 3.28 96 1011.0
20260507182505 11 353 0.0 8.0 0.20 3.28 3.28 96 1010.6
20260507182037 11 36 3.2 14.5 0.20 3.28 3.28 96 1010.5
20260507182011 11 97 3.2 14.5 0.20 3.28 3.28 95 1010.1
20260507181537 10 48 1.6 14.5 0.23 3.28 3.28 96 1010.2
20260507181506 10 65 3.2 14.5 0.23 3.28 3.28 95 1009.8
20260507181038 10 63 1.6 17.7 0.23 3.25 3.25 95 1010.3
20260507181002 10 41 3.2 17.7 0.23 3.25 3.25 95 1009.9
20260507180535 10 71 1.6 17.7 0.25 3.25 3.25 95 1010.5
20260507180505 11 86 3.2 17.7 0.25 3.25 3.25 95 1010.0
20260507180037 11 118 6.4 14.5 0.23 3.23 3.23 96 1010.4
20260507180007 11 44 8.0 14.5 0.25 3.23 3.23 95 1010.0
20260507175533 11 87 0.0 11.3 0.25 3.23 3.23 96 1010.8
20260507175503 11 86 1.6 11.3 0.25 3.23 3.23 95 1010.5
20260507175034 11 69 3.2 14.5 0.25 3.20 3.20 96 1011.3
20260507175009 11 41 4.8 14.5 0.25 3.20 3.20 95 1010.7
20260507174537 11 50 4.8 14.5 0.25 3.20 3.20 95 1011.4
20260507174509 11 84 4.8 14.5 0.25 3.20 3.20 95 1010.9
20260507174032 11 77 1.6 14.5 0.20 3.15 3.15 96 1011.7
20260507174004 11 68 3.2 14.5 0.20 3.15 3.15 95 1011.2
20260507173532 11 46 0.0 6.4 0.18 3.12 3.12 96 1011.6
20260507173507 11 48 0.0 6.4 0.18 3.12 3.12 96 1011.1
20260507173047 11 79 0.0 11.3 0.18 3.10 3.10 96 1011.7
20260507173022 11 117 0.0 11.3 0.18 3.10 3.10 96 1011.2
20260507172530 11 93 1.6 11.3 0.18 3.07 3.07 96 1011.8
20260507172504 11 9 3.2 11.3 0.18 3.07 3.07 95 1011.3
20260507172031 11 120 0.0 12.9 0.20 3.07 3.07 96 1012.0
20260507172012 11 74 1.6 12.9 0.20 3.07 3.07 95 1011.4
20260507171540 11 81 4.8 12.9 0.23 3.05 3.05 96 1012.0
20260507171508 11 70 4.8 12.9 0.23 3.05 3.05 96 1011.5
20260507171030 11 76 1.6 11.3 0.25 3.02 3.02 96 1012.1
20260507171005 11 83 1.6 11.3 0.25 3.02 3.02 95 1011.6
20260507170530 11 67 1.6 11.3 0.28 3.00 3.00 96 1012.1
20260507170509 11 70 3.2 11.3 0.28 2.97 2.97 95 1011.6
20260507170033 11 88 1.6 9.7 0.33 3.00 3.00 96 1011.9
20260507170010 11 63 1.6 9.7 0.30 2.95 2.95 95 1011.3
20260507165528 11 69 1.6 17.7 0.38 2.97 2.97 96 1011.9
20260507165505 11 74 1.6 17.7 0.38 2.95 2.95 95 1011.3
20260507165029 11 72 1.6 17.7 0.46 2.92 2.92 95 1011.9
20260507165009 11 70 3.2 17.7 0.46 2.95 2.95 95 1011.3
20260507164533 11 71 4.8 20.9 0.58 2.92 2.92 95 1012.0
20260507164514 11 60 4.8 20.9 0.58 2.95 2.95 95 1011.4
20260507164028 11 131 1.6 20.9 0.66 2.92 2.92 95 1011.9
20260507164006 11 81 3.2 20.9 0.66 2.95 2.95 95 1011.4
20260507163528 11 100 1.6 20.9 0.71 2.92 2.92 96 1011.9
20260507163510 11 103 3.2 20.9 0.76 2.95 2.95 95 1011.4
20260507163026 11 293 4.8 22.5 0.81 2.90 2.90 96 1012.1
20260507163011 11 106 6.4 22.5 0.81 2.92 2.92 95 1011.4
20260507162526 11 56 1.6 22.5 0.86 2.87 2.87 96 1011.7
20260507162507 11 60 3.2 22.5 0.86 2.90 2.90 95 1011.2
20260507162026 11 360 1.6 9.7 0.89 2.84 2.84 96 1011.5
20260507162014 11 109 3.2 9.7 0.89 2.87 2.87 96 1011.0
20260507161529 11 108 1.6 4.8 0.91 2.82 2.82 96 1011.8
20260507161521 11 72 1.6 6.4 0.91 2.82 2.82 95 1011.3
20260507161025 11 129 0.0 9.7 0.91 2.77 2.77 96 1011.9
20260507161009 11 139 0.0 9.7 0.94 2.77 2.77 96 1011.3
20260507160525 11 81 1.6 12.9 0.97 2.72 2.72 96 1011.9
20260507160503 11 71 1.6 12.9 0.97 2.72 2.72 95 1011.4
20260507160031 11 91 4.8 16.1 0.99 2.67 2.67 95 1011.9
20260507160018 11 95 6.4 16.1 0.99 2.64 2.64 95 1011.4
20260507155525 11 70 4.8 25.7 1.02 2.59 2.59 95 1011.8
20260507155508 11 352 4.8 25.7 1.04 2.59 2.59 95 1011.3
20260507155023 11 53 11.3 25.7 0.99 2.49 2.49 95 1010.8
20260507155002 11 117 12.9 25.7 1.02 2.49 2.49 95 1010.6
20260507154522 11 77 6.4 20.9 0.89 2.36 2.36 95 1011.7
20260507154519 11 85 8.0 20.9 0.89 2.36 2.36 95 1011.3
20260507154024 11 71 8.0 20.9 0.81 2.29 2.29 95 1011.6
20260507154008 11 249 9.7 20.9 0.81 2.29 2.29 95 1011.2
20260507153520 12 83 4.8 19.3 0.71 2.18 2.18 95 1011.8
20260507153504 12 80 4.8 19.3 0.74 2.18 2.18 95 1011.3
20260507153019 12 76 4.8 17.7 0.66 2.11 2.11 96 1011.7
20260507153017 12 51 4.8 17.7 0.66 2.11 2.11 95 1011.3
20260507152522 12 52 3.2 17.7 0.61 2.03 2.03 96 1012.0
20260507152508 12 55 3.2 17.7 0.61 2.03 2.03 95 1011.5
20260507152017 12 76 1.6 12.9 0.56 1.98 1.98 96 1012.0
20260507152002 12 77 3.2 12.9 0.56 1.98 1.98 95 1011.6
20260507151517 12 86 0.0 12.9 0.48 1.91 1.91 95 1011.6
20260507151015 12 78 3.2 11.3 0.43 1.83 1.83 96 1012.0
20260507151007 12 89 3.2 11.3 0.43 1.83 1.83 95 1011.5
20260507150514 12 55 1.6 17.7 0.36 1.75 1.75 96 1012.1
20260507150507 12 25 3.2 17.7 0.36 1.75 1.75 95 1011.6
20260507150021 13 113 4.8 17.7 0.30 1.68 1.68 95 1011.4
20260507150016 13 109 3.2 17.7 0.30 1.68 1.68 96 1011.9
20260507145514 13 92 1.6 6.4 0.18 1.55 1.55 96 1011.9
20260507145509 13 95 1.6 6.4 0.18 1.55 1.55 95 1011.5
20260507145017 13 74 1.6 6.4 0.13 1.45 1.45 95 1012.1
20260507145004 13 38 1.6 6.4 0.13 1.47 1.47 95 1011.6
20260507144518 13 66 3.2 8.0 0.13 1.47 1.47 95 1011.4
20260507144511 13 76 1.6 8.0 0.13 1.45 1.45 95 1011.8
20260507144011 13 87 0.0 9.7 0.13 1.45 1.45 96 1011.8
20260507144009 13 87 0.0 9.7 0.13 1.47 1.47 95 1011.4
20260507143511 13 99 1.6 12.9 0.10 1.42 1.42 96 1011.6
20260507143502 13 103 3.2 12.9 0.10 1.45 1.45 95 1011.3
20260507143022 13 39 3.2 12.9 0.10 1.45 1.45 95 1011.2
20260507143018 13 45 3.2 12.9 0.10 1.42 1.42 96 1011.5
20260507142508 13 74 1.6 16.1 0.10 1.42 1.42 96 1011.4
20260507142009 13 50 4.8 16.1 0.13 1.42 1.42 96 1011.5
20260507142007 13 65 4.8 16.1 0.13 1.42 1.42 95 1011.1
20260507141523 13 81 3.2 24.1 0.15 1.42 1.42 95 1011.1
20260507141507 13 79 3.2 24.1 0.15 1.42 1.42 96 1011.5
20260507141011 14 75 6.4 24.1 0.15 1.40 1.40 95 1011.0
20260507141007 14 72 4.8 24.1 0.15 1.40 1.40 96 1011.3
20260507140507 14 57 1.6 16.1 0.20 1.40 1.40 95 1010.9
20260507140505 14 54 0.0 16.1 0.20 1.40 1.40 96 1011.2
20260507140024 14 70 3.2 11.3 0.20 1.37 1.37 95 1011.0
20260507140004 14 66 3.2 11.3 0.20 1.37 1.37 96 1011.3
20260507135508 14 77 3.2 12.9 0.23 1.37 1.37 95 1011.0
20260507135503 14 74 3.2 12.9 0.23 1.37 1.37 96 1011.2
20260507135005 15 54 4.8 16.1 0.20 1.32 1.32 95 1010.9
20260507135002 15 43 3.2 16.1 0.20 1.35 1.35 96 1011.2
20260507134529 15 66 3.2 16.1 0.20 1.32 1.32 95 1010.9
20260507134505 15 63 1.6 16.1 0.20 1.35 1.35 96 1011.1
20260507134010 15 62 3.2 16.1 0.20 1.32 1.32 95 1011.0
20260507134001 15 59 1.6 16.1 0.20 1.35 1.35 96 1011.2
20260507133601 15 127 3.2 14.5 0.20 1.35 1.35 96 1011.2
20260507133505 15 73 3.2 14.5 0.20 1.32 1.32 96 1011.0
20260507133106 15 97 3.2 14.5 0.23 1.35 1.35 96 1011.2
20260507133028 15 70 3.2 14.5 0.23 1.32 1.32 96 1010.8
20260507132559 15 31 0.0 4.8 0.20 1.32 1.32 96 1011.1
20260507132507 15 137 0.0 3.2 0.20 1.32 1.32 96 1010.8
20260507132059 15 42 0.0 3.2 0.20 1.30 1.30 96 1011.1
20260507132006 15 45 0.0 3.2 0.20 1.30 1.30 96 1010.8
20260507131600 15 60 0.0 3.2 0.20 1.27 1.27 96 1011.2
20260507131524 15 63 0.0 3.2 0.20 1.27 1.27 96 1010.9
20260507131059 15 30 0.0 3.2 0.23 1.24 1.24 96 1011.1
20260507131004 15 37 0.0 4.8 0.23 1.24 1.24 95 1010.9
20260507130600 15 49 0.0 4.8 0.25 1.19 1.19 96 1011.3
20260507130510 15 57 0.0 4.8 0.25 1.19 1.19 95 1011.1
20260507130059 15 165 1.6 12.9 0.25 1.17 1.17 96 1011.5
20260507130026 15 20 1.6 12.9 0.25 1.17 1.17 95 1011.3
20260507125559 15 329 0.0 12.9 0.25 1.14 1.14 96 1011.5
20260507125504 15 56 0.0 12.9 0.28 1.14 1.14 95 1011.3
20260507125058 15 22 1.6 8.0 0.33 1.14 1.14 96 1011.6
20260507125005 15 17 1.6 8.0 0.33 1.14 1.14 95 1011.3
20260507124558 15 31 0.0 8.0 0.38 1.14 1.14 96 1011.5
20260507124528 15 47 1.6 8.0 0.41 1.14 1.14 95 1011.2
20260507124058 15 29 0.0 6.4 0.43 1.14 1.14 96 1011.3
20260507124003 15 32 0.0 6.4 0.46 1.14 1.14 95 1011.0
20260507123558 15 56 0.0 3.2 0.46 1.14 1.14 96 1011.3
20260507123506 15 38 0.0 3.2 0.48 1.14 1.14 95 1011.2
20260507123057 15 41 0.0 3.2 0.51 1.12 1.12 96 1011.5
20260507123026 15 44 0.0 3.2 0.51 1.12 1.12 95 1011.2
20260507122555 15 36 0.0 6.4 0.56 1.12 1.12 95 1011.4
20260507122503 15 39 1.6 6.4 0.58 1.12 1.12 95 1011.3
20260507122055 15 326 0.0 6.4 0.58 1.09 1.09 95 1011.7
20260507122011 15 260 0.0 6.4 0.61 1.09 1.09 95 1011.4
20260507121555 15 53 0.0 3.2 0.61 1.07 1.07 95 1011.4
20260507121527 15 56 0.0 3.2 0.64 1.07 1.07 94 1011.1
20260507121054 15 44 0.0 9.7 0.69 1.02 1.02 95 1011.5
20260507121007 15 55 0.0 9.7 0.74 1.02 1.02 94 1011.2
20260507120553 16 294 0.0 9.7 0.69 0.94 0.94 94 1011.6
20260507120510 16 30 1.6 9.7 0.71 0.94 0.94 94 1011.3
20260507120028 16 32 1.6 8.0 0.69 0.91 0.91 93 1010.9
20260507115550 17 46 0.0 6.4 0.66 0.86 0.86 93 1011.2
20260507115503 17 60 1.6 6.4 0.66 0.86 0.86 93 1010.8
20260507115052 18 112 0.0 8.0 0.61 0.81 0.81 96 1011.0
20260507115010 18 14 0.0 8.0 0.61 0.81 0.81 95 1010.8
20260507114548 18 313 0.0 8.0 0.56 0.76 0.76 96 1011.1
20260507114528 18 322 0.0 8.0 0.53 0.74 0.74 95 1010.7
20260507114050 18 308 3.2 6.4 0.51 0.69 0.69 96 1011.0
20260507114006 18 302 3.2 6.4 0.51 0.69 0.69 95 1010.7
20260507113547 18 279 3.2 6.4 0.51 0.69 0.69 96 1010.8
20260507113506 18 300 4.8 6.4 0.48 0.66 0.66 95 1010.5
20260507113052 18 303 0.0 6.4 0.46 0.61 0.61 96 1010.7
20260507113030 18 299 0.0 6.4 0.48 0.61 0.61 95 1010.4
20260507112547 18 314 1.6 6.4 0.43 0.53 0.53 96 1010.8
20260507112506 18 317 0.0 6.4 0.46 0.53 0.53 95 1010.6
20260507112046 18 296 3.2 6.4 0.43 0.48 0.48 95 1010.8
20260507112011 18 340 3.2 6.4 0.43 0.48 0.48 95 1010.6
20260507111547 18 313 3.2 6.4 0.41 0.43 0.43 95 1010.8
20260507111539 18 307 3.2 6.4 0.41 0.43 0.43 95 1010.6
20260507111045 18 313 3.2 6.4 0.28 0.30 0.30 95 1010.9
20260507111008 18 324 4.8 6.4 0.25 0.28 0.28 95 1010.6
20260507110544 18 302 0.0 9.7 0.23 0.25 0.25 95 1010.7
20260507110508 18 284 0.0 9.7 0.20 0.23 0.23 94 1010.4
20260507110045 18 290 3.2 9.7 0.20 0.23 0.23 95 1010.7
20260507110030 18 297 3.2 9.7 0.20 0.23 0.23 94 1010.5
20260507105646 18 299 1.6 9.7 0.18 0.20 0.20 95 1010.8
20260507105506 18 317 3.2 9.7 0.18 0.20 0.20 94 1010.5
20260507105042 18 302 3.2 9.7 0.18 0.20 0.20 94 1010.8
20260507105011 18 314 3.2 8.0 0.18 0.20 0.20 94 1010.6
20260507104542 18 297 3.2 12.9 0.18 0.20 0.20 94 1010.6
20260507104527 18 314 3.2 12.9 0.18 0.20 0.20 93 1010.3
20260507104042 18 297 4.8 12.9 0.15 0.18 0.18 94 1010.6
20260507104007 18 278 4.8 12.9 0.15 0.18 0.18 93 1010.3
20260507103541 18 332 3.2 9.7 0.15 0.18 0.18 93 1010.6
20260507103508 18 284 3.2 9.7 0.15 0.18 0.18 93 1010.3
20260507103042 19 313 1.6 11.3 0.10 0.13 0.13 93 1010.6
20260507103035 19 281 3.2 11.3 0.10 0.13 0.13 92 1010.4
20260507102539 19 290 4.8 12.9 0.08 0.10 0.10 92 1010.7
20260507102507 19 300 6.4 12.9 0.05 0.08 0.08 91 1010.4
20260507102040 19 303 6.4 12.9 0.03 0.05 0.05 91 1010.4
20260507102014 19 297 9.7 12.9 0.03 0.05 0.05 91 1010.2
20260507101537 19 320 3.2 9.7 0.00 0.03 0.03 91 1010.1
20260507101515 19 347 4.8 9.7 0.00 0.03 0.03 90 1009.9
20260507101037 19 274 1.6 9.7 0.00 0.03 0.03 90 1009.9
20260507101008 19 304 1.6 11.3 0.00 0.03 0.03 90 1009.7
20260507100540 20 287 1.6 12.9 0.00 0.03 0.03 90 1009.7
20260507100507 20 240 3.2 12.9 0.00 0.03 0.03 90 1009.5
20260507100039 20 214 3.2 12.9 0.00 0.03 0.03 90 1009.6
20260507100019 20 314 3.2 12.9 0.00 0.03 0.03 89 1009.5
20260507095535 20 222 1.6 16.1 0.00 0.03 0.03 89 1009.6
20260507095508 20 280 3.2 16.1 0.00 0.03 0.03 89 1009.4
20260507095034 20 211 4.8 16.1 0.00 0.03 0.03 89 1009.6
20260507095011 20 328 4.8 16.1 0.00 0.03 0.03 89 1009.4
20260507094535 20 327 1.6 9.7 0.00 0.03 0.03 89 1009.4
20260507094516 20 287 3.2 9.7 0.00 0.03 0.03 89 1009.3
20260507094034 20 252 3.2 8.0 0.00 0.03 0.03 89 1009.3
20260507094007 20 316 3.2 8.0 0.00 0.03 0.03 88 1009.2
20260507093534 20 266 1.6 8.0 0.00 0.03 0.03 89 1009.2
20260507093512 20 268 3.2 8.0 0.00 0.03 0.03 88 1009.2
20260507093036 20 224 0.0 9.7 0.00 0.03 0.03 89 1009.3
20260507093021 20 272 1.6 9.7 0.00 0.03 0.03 88 1009.2
20260507092533 20 298 3.2 9.7 0.00 0.03 0.03 88 1009.4
20260507092508 20 297 3.2 9.7 0.00 0.03 0.03 88 1009.3
20260507092032 20 253 0.0 12.9 0.00 0.03 0.03 88 1009.3
20260507092014 20 278 0.0 12.9 0.00 0.03 0.03 88 1009.2
20260507091532 20 310 3.2 12.9 0.00 0.03 0.03 88 1009.6
20260507091525 20 317 3.2 12.9 0.00 0.03 0.03 88 1009.5
20260507091032 20 301 3.2 9.7 0.00 0.03 0.03 88 1009.7
20260507091014 20 302 4.8 9.7 0.00 0.03 0.03 88 1009.5
20260507090531 20 248 3.2 11.3 0.00 0.03 0.03 88 1009.7
20260507090512 20 288 3.2 11.3 0.00 0.03 0.03 87 1009.5
20260507090031 20 287 0.0 11.3 0.00 0.03 0.03 88 1009.7
20260507090022 20 247 1.6 11.3 0.00 0.03 0.03 87 1009.5
20260507085531 20 306 3.2 9.7 0.00 0.03 0.03 87 1009.8
20260507085503 20 263 3.2 9.7 0.00 0.03 0.03 87 1009.6
20260507085032 20 300 4.8 9.7 0.00 0.03 0.03 87 1010.0
20260507085004 20 330 4.8 8.0 0.00 0.03 0.03 87 1009.8
20260507084532 20 159 1.6 9.7 0.00 0.03 0.03 87 1010.0
20260507084528 20 277 3.2 9.7 0.00 0.03 0.03 86 1009.8
20260507084031 20 310 1.6 9.7 0.00 0.03 0.03 86 1010.0
20260507084003 20 308 3.2 11.3 0.00 0.03 0.03 86 1009.8
20260507083531 20 266 3.2 11.3 0.00 0.03 0.03 86 1010.2
20260507083504 20 244 4.8 11.3 0.00 0.03 0.03 86 1010.0
20260507083031 20 314 4.8 11.3 0.00 0.03 0.03 86 1010.3
20260507083022 20 297 4.8 11.3 0.00 0.03 0.03 85 1010.1
20260507082529 20 220 0.0 14.5 0.00 0.03 0.03 86 1010.2
20260507082503 20 246 1.6 14.5 0.00 0.03 0.03 85 1009.9
20260507082033 20 262 6.4 14.5 0.00 0.03 0.03 86 1010.4
20260507082008 20 301 6.4 14.5 0.00 0.03 0.03 85 1010.1
20260507081536 20 302 3.2 11.3 0.00 0.03 0.03 86 1010.4
20260507081526 20 287 3.2 11.3 0.00 0.03 0.03 85 1010.2
20260507081030 20 299 3.2 12.9 0.00 0.03 0.03 86 1010.5
20260507081004 20 319 3.2 12.9 0.00 0.03 0.03 85 1010.2
20260507080530 20 300 3.2 12.9 0.00 0.03 0.03 86 1010.5
20260507080506 20 324 4.8 12.9 0.00 0.03 0.03 85 1010.2
20260507080031 20 235 1.6 9.7 0.00 0.03 0.03 86 1010.5
20260507080025 20 222 3.2 9.7 0.00 0.03 0.03 85 1010.2
20260507075529 20 224 3.2 9.7 0.00 0.03 0.03 86 1010.6
20260507075502 20 285 4.8 9.7 0.00 0.03 0.03 85 1010.4
20260507075029 20 323 1.6 9.7 0.00 0.03 0.03 86 1010.7
20260507075009 20 292 3.2 9.7 0.00 0.03 0.03 86 1010.5
20260507074533 20 213 1.6 8.0 0.00 0.03 0.03 86 1010.8
20260507074526 20 252 3.2 9.7 0.00 0.03 0.03 86 1010.6
20260507074031 20 253 1.6 9.7 0.00 0.03 0.03 86 1010.8
20260507074004 20 308 3.2 9.7 0.00 0.03 0.03 86 1010.6
20260507073529 20 198 3.2 9.7 0.00 0.03 0.03 86 1010.7
20260507073506 20 226 3.2 9.7 0.00 0.03 0.03 86 1010.4
20260507073029 20 256 0.0 9.7 0.03 0.03 0.03 87 1010.5
20260507073008 20 245 1.6 9.7 0.03 0.03 0.03 86 1010.3
20260507072528 20 252 1.6 9.7 0.03 0.03 0.03 87 1010.8
20260507072504 20 245 3.2 9.7 0.03 0.03 0.03 86 1010.5
20260507072027 20 285 3.2 12.9 0.03 0.03 0.03 87 1010.6
20260507072004 20 273 3.2 12.9 0.03 0.03 0.03 86 1010.3
20260507071533 20 319 3.2 12.9 0.03 0.03 0.03 87 1010.6
20260507071505 20 255 3.2 12.9 0.03 0.03 0.03 87 1010.3
20260507071028 20 244 1.6 8.0 0.03 0.03 0.03 87 1010.4
20260507071007 20 221 1.6 8.0 0.03 0.03 0.03 87 1010.1
20260507070528 20 320 1.6 9.7 0.03 0.03 0.03 87 1010.4
20260507070508 20 342 3.2 9.7 0.03 0.03 0.03 87 1010.2
20260507070030 20 292 4.8 9.7 0.03 0.03 0.03 87 1010.4
20260507070011 20 290 4.8 9.7 0.03 0.03 0.03 87 1010.3
20260507065527 20 285 1.6 6.4 0.03 0.03 0.03 87 1010.4
20260507065505 20 300 1.6 6.4 0.03 0.03 0.03 87 1010.1
20260507065027 20 252 1.6 6.4 0.03 0.03 0.03 87 1009.9
20260507065009 20 255 1.6 6.4 0.03 0.03 0.03 87 1009.8
20260507064534 20 263 0.0 4.8 0.03 0.03 0.03 87 1009.8
20260507064506 20 296 1.6 6.4 0.03 0.03 0.03 86 1009.7
20260507064027 20 293 1.6 6.4 0.03 0.03 0.03 87 1010.0
20260507064003 20 295 1.6 6.4 0.03 0.03 0.03 86 1009.8
20260507063526 20 139 1.6 9.7 0.03 0.03 0.03 86 1010.0
20260507063508 20 267 1.6 9.7 0.03 0.03 0.03 86 1009.8
20260507063026 20 136 0.0 9.7 0.00 0.00 0.00 85 1009.3
20260507063006 20 136 0.0 9.7 0.00 0.00 0.00 85 1009.3
20260507062526 20 160 0.0 8.0 0.00 0.00 0.00 85 1010.3
20260507062507 20 245 1.6 8.0 0.00 0.00 0.00 85 1010.1
20260507062022 20 253 1.6 8.0 0.00 0.00 0.00 85 1010.6
20260507062011 20 224 1.6 8.0 0.00 0.00 0.00 85 1010.4
20260507061530 20 262 0.0 9.7 0.00 0.00 0.00 85 1011.1
20260507061508 20 248 1.6 9.7 0.00 0.00 0.00 85 1010.8
20260507061021 20 213 1.6 9.7 0.00 0.00 0.00 85 1011.3
20260507061007 20 297 3.2 9.7 0.00 0.00 0.00 84 1011.1
20260507060519 20 185 1.6 9.7 0.00 0.00 0.00 85 1011.3
20260507060508 20 194 1.6 9.7 0.00 0.00 0.00 84 1011.1
20260507060018 20 239 3.2 9.7 0.00 0.00 0.00 84 1011.3
20260507060010 20 228 3.2 9.7 0.00 0.00 0.00 83 1011.1
20260507055518 20 239 3.2 9.7 0.00 0.00 0.00 83 1011.3
20260507055505 20 278 3.2 9.7 0.00 0.00 0.00 82 1011.1
20260507055017 21 257 3.2 11.3 0.00 0.00 0.00 82 1011.4
20260507055012 21 290 3.2 11.3 0.00 0.00 0.00 82 1011.1
20260507054520 21 248 1.6 11.3 0.00 0.00 0.00 81 1011.4
20260507054508 21 290 1.6 11.3 0.00 0.00 0.00 81 1011.2
20260507054016 21 209 3.2 9.7 0.00 0.00 0.00 80 1011.5
20260507054005 21 271 4.8 9.7 0.00 0.00 0.00 79 1011.2
20260507053515 21 256 3.2 11.3 0.00 0.00 0.00 79 1011.4
20260507053511 21 228 4.8 11.3 0.00 0.00 0.00 78 1011.2
20260507053021 21 240 3.2 11.3 0.00 0.00 0.00 78 1011.5
20260507053010 21 268 4.8 11.3 0.00 0.00 0.00 78 1011.4
20260507052513 21 294 1.6 9.7 0.00 0.00 0.00 77 1011.6
20260507052506 21 248 3.2 9.7 0.00 0.00 0.00 77 1011.3
20260507052013 21 261 3.2 11.3 0.00 0.00 0.00 76 1011.6
20260507051511 21 9 1.6 11.3 0.00 0.00 0.00 76 1011.6
20260507051508 21 12 3.2 11.3 0.00 0.00 0.00 76 1011.4
20260507051009 21 233 1.6 9.7 0.00 0.00 0.00 75 1011.6
20260507050512 21 344 3.2 11.3 0.00 0.00 0.00 75 1011.5
20260507050508 21 331 3.2 11.3 0.00 0.00 0.00 74 1011.3
20260507050010 21 214 4.8 11.3 0.00 0.00 0.00 74 1011.4
20260507045548 21 258 1.6 9.7 0.00 0.00 0.00 74 1011.3
20260507045506 21 169 1.6 9.7 0.00 0.00 0.00 74 1011.0
20260507045048 21 250 1.6 8.0 0.00 0.00 0.00 74 1011.2
20260507045011 21 248 1.6 8.0 0.00 0.00 0.00 74 1011.0
20260507044550 21 228 1.6 11.3 0.00 0.00 0.00 74 1011.3
20260507044533 21 183 1.6 11.3 0.00 0.00 0.00 73 1011.0
20260507044047 21 203 1.6 11.3 0.00 0.00 0.00 74 1011.4
20260507044009 21 143 3.2 11.3 0.00 0.00 0.00 73 1011.1
20260507043547 21 215 0.0 8.0 0.00 0.00 0.00 74 1011.4
20260507043503 21 245 1.6 8.0 0.00 0.00 0.00 73 1011.1
20260507043049 21 254 1.6 9.7 0.00 0.00 0.00 74 1011.4
20260507043014 21 257 3.2 9.7 0.00 0.00 0.00 73 1011.1
20260507042547 21 278 1.6 9.7 0.00 0.00 0.00 73 1011.5
20260507042507 21 328 3.2 9.7 0.00 0.00 0.00 73 1011.3
20260507042048 21 267 3.2 9.7 0.00 0.00 0.00 74 1011.6
20260507042004 21 256 3.2 9.7 0.00 0.00 0.00 73 1011.3
20260507041547 21 211 3.2 12.9 0.00 0.00 0.00 74 1011.6
20260507041518 21 263 4.8 12.9 0.00 0.00 0.00 73 1011.3
20260507041047 21 230 4.8 12.9 0.00 0.00 0.00 74 1011.4
20260507041007 21 202 4.8 12.9 0.00 0.00 0.00 73 1011.2
20260507040545 21 180 3.2 9.7 0.00 0.00 0.00 74 1011.3
20260507040503 21 229 3.2 9.7 0.00 0.00 0.00 74 1011.1
20260507040142 21 237 1.6 9.7 0.00 0.00 0.00 75 1011.4
20260507040018 21 242 3.2 9.7 0.00 0.00 0.00 74 1011.1
20260507035543 21 150 1.6 9.7 0.00 0.00 0.00 75 1011.2
20260507035507 21 229 3.2 9.7 0.00 0.00 0.00 74 1011.0
20260507035142 22 173 3.2 8.0 0.00 0.00 0.00 75 1011.1
20260507035003 22 236 3.2 8.0 0.00 0.00 0.00 74 1010.7
20260507034554 22 188 1.6 8.0 0.00 0.00 0.00 75 1011.0
20260507034520 22 231 1.6 8.0 0.00 0.00 0.00 75 1010.7
20260507034040 22 145 1.6 8.0 0.00 0.00 0.00 75 1011.0
20260507034006 22 203 1.6 8.0 0.00 0.00 0.00 74 1010.8
20260507033540 22 237 1.6 6.4 0.00 0.00 0.00 75 1011.0
20260507033503 22 250 1.6 6.4 0.00 0.00 0.00 74 1010.8
20260507033057 22 249 0.0 6.4 0.00 0.00 0.00 75 1011.0
20260507033020 22 233 1.6 6.4 0.00 0.00 0.00 75 1010.7
20260507032542 22 263 0.0 6.4 0.00 0.00 0.00 75 1010.8
20260507032508 22 133 0.0 6.4 0.00 0.00 0.00 74 1010.4
20260507032039 22 237 0.0 8.0 0.00 0.00 0.00 75 1010.9
20260507032005 22 255 0.0 8.0 0.00 0.00 0.00 74 1010.6
20260507031539 22 246 1.6 8.0 0.00 0.00 0.00 74 1011.2
20260507031521 22 139 3.2 8.0 0.00 0.00 0.00 74 1011.0
20260507031039 22 276 1.6 4.8 0.00 0.00 0.00 74 1011.3
20260507031007 22 168 1.6 6.4 0.00 0.00 0.00 73 1011.1
20260507030543 22 105 0.0 6.4 0.00 0.00 0.00 74 1011.1
20260507030505 22 263 0.0 6.4 0.00 0.00 0.00 73 1011.0
20260507030039 22 294 1.6 6.4 0.00 0.00 0.00 74 1011.1
20260507030023 22 278 3.2 6.4 0.00 0.00 0.00 73 1010.8
20260507025538 22 297 1.6 6.4 0.00 0.00 0.00 74 1011.1
20260507025508 22 296 1.6 6.4 0.00 0.00 0.00 74 1010.9
20260507025038 22 230 3.2 6.4 0.00 0.00 0.00 75 1011.2
20260507025006 22 309 3.2 6.4 0.00 0.00 0.00 74 1010.9
20260507024550 22 268 1.6 6.4 0.00 0.00 0.00 75 1011.5
20260507024524 22 334 1.6 6.4 0.00 0.00 0.00 75 1011.1
20260507024041 22 273 1.6 6.4 0.00 0.00 0.00 75 1011.5
20260507024009 22 217 1.6 6.4 0.00 0.00 0.00 75 1011.2
20260507023540 22 242 0.0 8.0 0.00 0.00 0.00 75 1011.7
20260507023504 22 283 0.0 8.0 0.00 0.00 0.00 75 1011.4
20260507023037 22 228 0.0 8.0 0.00 0.00 0.00 75 1011.7
20260507023025 22 235 1.6 8.0 0.00 0.00 0.00 75 1011.4
20260507022537 22 163 0.0 4.8 0.00 0.00 0.00 75 1011.8
20260507022513 23 237 0.0 4.8 0.00 0.00 0.00 75 1011.4
20260507022037 23 255 1.6 8.0 0.00 0.00 0.00 75 1011.8
20260507022006 23 233 1.6 8.0 0.00 0.00 0.00 75 1011.4
20260507021537 23 222 0.0 8.0 0.00 0.00 0.00 75 1011.7
20260507021529 23 208 1.6 8.0 0.00 0.00 0.00 75 1011.3
20260507021041 23 149 0.0 4.8 0.00 0.00 0.00 75 1011.5
20260507021014 23 178 0.0 4.8 0.00 0.00 0.00 75 1011.2
20260507020537 23 204 1.6 4.8 0.00 0.00 0.00 75 1011.7
20260507020508 23 255 1.6 4.8 0.00 0.00 0.00 75 1011.3
20260507020038 23 211 0.0 4.8 0.00 0.00 0.00 75 1011.8
20260507020035 23 233 1.6 4.8 0.00 0.00 0.00 75 1011.4
20260507015535 23 197 1.6 4.8 0.00 0.00 0.00 75 1011.8
20260507015511 23 230 1.6 4.8 0.00 0.00 0.00 75 1011.5
20260507015039 23 255 0.0 4.8 0.00 0.00 0.00 75 1011.9
20260507015004 23 250 0.0 4.8 0.00 0.00 0.00 74 1011.5
20260507014636 23 218 0.0 4.8 0.00 0.00 0.00 74 1011.9
20260507014529 23 262 0.0 4.8 0.00 0.00 0.00 74 1011.4
20260507014035 23 247 0.0 3.2 0.00 0.00 0.00 73 1011.8
20260507014004 23 236 0.0 3.2 0.00 0.00 0.00 73 1011.3
20260507013535 23 233 0.0 3.2 0.00 0.00 0.00 72 1011.6
20260507013507 23 226 0.0 3.2 0.00 0.00 0.00 72 1011.3
20260507013038 23 231 1.6 4.8 0.00 0.00 0.00 72 1011.6
20260507013031 23 264 1.6 4.8 0.00 0.00 0.00 71 1011.2
20260507012535 23 242 0.0 4.8 0.00 0.00 0.00 70 1011.7
20260507012505 23 214 0.0 4.8 0.00 0.00 0.00 69 1011.3
20260507012035 23 181 0.0 4.8 0.00 0.00 0.00 69 1011.7
20260507012006 23 200 1.6 4.8 0.00 0.00 0.00 69 1011.3
20260507011537 23 212 0.0 3.2 0.00 0.00 0.00 69 1011.7
20260507011526 23 243 0.0 3.2 0.00 0.00 0.00 68 1011.3
20260507011034 23 163 0.0 6.4 0.00 0.00 0.00 69 1011.7
20260507011002 23 269 0.0 6.4 0.00 0.00 0.00 68 1011.4
20260507010534 23 221 0.0 6.4 0.00 0.00 0.00 68 1011.7
20260507010507 23 231 1.6 6.4 0.00 0.00 0.00 68 1011.4
20260507010038 23 220 1.6 6.4 0.00 0.00 0.00 68 1011.7
20260507010006 23 252 3.2 6.4 0.00 0.00 0.00 68 1011.4
20260507005532 23 231 0.0 8.0 0.00 0.00 0.00 68 1011.7
20260507005508 23 233 1.6 8.0 0.00 0.00 0.00 68 1011.3
20260507005032 23 216 3.2 8.0 0.00 0.00 0.00 68 1011.7
20260507005009 23 231 3.2 8.0 0.00 0.00 0.00 67 1011.3
20260507004532 23 171 0.0 4.8 0.00 0.00 0.00 68 1011.7
20260507004507 23 251 1.6 4.8 0.00 0.00 0.00 67 1011.3
20260507004033 23 182 0.0 3.2 0.00 0.00 0.00 67 1011.5
20260507004005 23 188 0.0 3.2 0.00 0.00 0.00 66 1011.1
20260507003533 23 177 0.0 3.2 0.00 0.00 0.00 66 1011.4
20260507003509 23 181 0.0 3.2 0.00 0.00 0.00 66 1011.1
20260507003032 24 210 0.0 4.8 0.00 0.00 0.00 66 1011.4
20260507003015 24 207 0.0 4.8 0.00 0.00 0.00 66 1011.0
20260507002532 24 247 0.0 6.4 0.00 0.00 0.00 66 1011.4
20260507002505 24 212 1.6 6.4 0.00 0.00 0.00 65 1011.0
20260507002032 24 226 0.0 6.4 0.00 0.00 0.00 66 1011.3
20260507002012 24 234 1.6 6.4 0.00 0.00 0.00 65 1010.9
20260507001544 24 236 0.0 8.0 0.00 0.00 0.00 66 1011.1
20260507001518 24 216 1.6 8.0 0.00 0.00 0.00 65 1010.8
20260507001032 24 123 0.0 8.0 0.00 0.00 0.00 65 1011.1
20260507001003 24 238 1.6 8.0 0.00 0.00 0.00 65 1010.8
20260507000531 24 202 0.0 4.8 0.00 0.00 0.00 65 1010.9
20260507000513 24 221 1.6 4.8 0.00 0.00 0.00 65 1010.7
20260507000032 24 221 0.0 3.2 0.00 0.00 0.00 65 1011.0
20260507000013 24 247 0.0 6.4 0.00 0.00 0.00 64 1010.8
20260506235531 24 252 0.0 6.4 0.00 0.00 0.00 65 1011.0
20260506235507 24 245 0.0 6.4 0.00 0.00 0.00 64 1010.8
20260506235030 24 323 0.0 6.4 0.00 0.00 0.00 65 1011.1
20260506235008 24 310 0.0 9.7 0.00 0.00 0.00 64 1010.8
20260506234545 25 271 1.6 11.3 0.00 0.00 0.00 64 1011.0
20260506234511 25 261 1.6 11.3 0.00 0.00 0.00 64 1010.7
20260506234031 25 234 3.2 11.3 0.00 0.00 0.00 64 1010.8
20260506234007 25 245 3.2 11.3 0.00 0.00 0.00 63 1010.6
20260506233530 25 241 3.2 11.3 0.00 0.00 0.00 63 1010.7
20260506233508 25 245 3.2 11.3 0.00 0.00 0.00 63 1010.4
20260506233029 25 242 0.0 6.4 0.00 0.00 0.00 63 1010.7
20260506233010 25 117 1.6 6.4 0.00 0.00 0.00 63 1010.4
20260506232530 25 244 1.6 8.0 0.00 0.00 0.00 63 1010.7
20260506232505 25 269 3.2 8.0 0.00 0.00 0.00 63 1010.4
20260506232032 25 218 1.6 9.7 0.00 0.00 0.00 63 1010.7
20260506232010 25 214 1.6 9.7 0.00 0.00 0.00 63 1010.5
20260506231535 25 317 1.6 9.7 0.00 0.00 0.00 63 1010.7
20260506231513 25 321 3.2 9.7 0.00 0.00 0.00 62 1010.4
20260506231030 25 219 3.2 11.3 0.00 0.00 0.00 62 1010.6
20260506231006 25 242 3.2 12.9 0.00 0.00 0.00 62 1010.3
20260506230529 25 252 1.6 12.9 0.00 0.00 0.00 62 1010.5
20260506230507 25 264 3.2 12.9 0.00 0.00 0.00 62 1010.1
20260506230029 25 223 3.2 12.9 0.00 0.00 0.00 62 1010.5
20260506230012 25 205 3.2 12.9 0.00 0.00 0.00 61 1010.2
20260506225531 25 235 3.2 14.5 0.00 0.00 0.00 62 1010.5
20260506225507 25 289 3.2 14.5 0.00 0.00 0.00 61 1010.2
20260506225028 25 228 4.8 14.5 0.00 0.00 0.00 61 1010.5
20260506225003 25 201 3.2 14.5 0.00 0.00 0.00 61 1010.3
20260506224530 25 213 3.2 14.5 0.00 0.00 0.00 62 1010.4
20260506224512 25 310 4.8 14.5 0.00 0.00 0.00 61 1010.2
20260506224128 25 294 3.2 17.7 0.00 0.00 0.00 61 1010.5
20260506224010 25 236 3.2 17.7 0.00 0.00 0.00 61 1010.2
20260506223527 26 243 4.8 17.7 0.00 0.00 0.00 61 1010.5
20260506223503 26 298 4.8 17.7 0.00 0.00 0.00 61 1010.3
20260506223031 26 228 3.2 12.9 0.00 0.00 0.00 61 1010.5
20260506223015 26 290 4.8 12.9 0.00 0.00 0.00 61 1010.2
20260506222528 26 237 6.4 12.9 0.00 0.00 0.00 61 1010.4
20260506222513 26 264 6.4 17.7 0.00 0.00 0.00 61 1010.2
20260506222029 26 209 3.2 17.7 0.00 0.00 0.00 62 1010.4
20260506222006 26 242 3.2 17.7 0.00 0.00 0.00 61 1010.2
20260506221527 26 308 4.8 17.7 0.00 0.00 0.00 62 1010.5
20260506221515 26 259 3.2 12.9 0.00 0.00 0.00 62 1010.3
20260506221027 26 201 1.6 12.9 0.00 0.00 0.00 63 1010.5
20260506221006 26 215 3.2 12.9 0.00 0.00 0.00 62 1010.3
20260506220527 26 254 4.8 16.1 0.00 0.00 0.00 62 1010.5
20260506220504 26 270 4.8 16.1 0.00 0.00 0.00 62 1010.3
20260506220034 26 249 3.2 16.1 0.00 0.00 0.00 62 1010.3
20260506220020 26 318 4.8 16.1 0.00 0.00 0.00 62 1010.2
20260506215526 26 122 4.8 12.9 0.00 0.00 0.00 62 1010.2
20260506215507 26 276 3.2 12.9 0.00 0.00 0.00 62 1010.1
20260506215026 26 230 4.8 12.9 0.00 0.00 0.00 62 1010.5
20260506215005 26 224 6.4 12.9 0.00 0.00 0.00 62 1010.4
20260506214527 26 244 3.2 17.7 0.00 0.00 0.00 63 1010.3
20260506214519 26 290 3.2 17.7 0.00 0.00 0.00 62 1010.2
20260506214028 26 260 4.8 17.7 0.00 0.00 0.00 62 1010.1
20260506214012 26 274 4.8 19.3 0.00 0.00 0.00 62 1010.2
20260506213525 26 123 3.2 19.3 0.00 0.00 0.00 62 1010.1
20260506213504 26 140 3.2 19.3 0.00 0.00 0.00 62 1009.8
20260506213025 26 258 8.0 19.3 0.00 0.00 0.00 62 1009.9
20260506213018 26 182 8.0 19.3 0.00 0.00 0.00 62 1009.8
20260506212527 26 216 3.2 20.9 0.00 0.00 0.00 62 1009.9
20260506212507 26 244 4.8 20.9 0.00 0.00 0.00 62 1009.8
20260506212025 26 192 4.8 20.9 0.00 0.00 0.00 62 1009.9
20260506212011 26 252 6.4 25.7 0.00 0.00 0.00 61 1009.8
20260506211524 26 346 3.2 25.7 0.00 0.00 0.00 62 1010.2
20260506211522 26 194 4.8 25.7 0.00 0.00 0.00 61 1010.0
20260506211023 26 240 9.7 25.7 0.00 0.00 0.00 61 1010.2
20260506211008 26 276 11.3 25.7 0.00 0.00 0.00 61 1010.3
20260506210522 26 242 8.0 24.1 0.00 0.00 0.00 62 1010.5
20260506210502 26 198 8.0 24.1 0.00 0.00 0.00 62 1010.4
20260506210023 26 121 4.8 24.1 0.00 0.00 0.00 63 1010.4
20260506205522 26 138 6.4 20.9 0.00 0.00 0.00 63 1010.4
20260506205511 25 272 6.4 20.9 0.00 0.00 0.00 63 1010.3
20260506205022 25 285 6.4 20.9 0.00 0.00 0.00 63 1010.5
20260506205007 25 280 6.4 20.9 0.00 0.00 0.00 63 1010.4
20260506204522 25 252 6.4 19.3 0.00 0.00 0.00 63 1010.6
20260506204019 25 218 4.8 20.9 0.00 0.00 0.00 63 1010.7
20260506204008 25 190 4.8 20.9 0.00 0.00 0.00 63 1010.7
20260506203519 25 245 6.4 22.5 0.00 0.00 0.00 62 1010.9
20260506203504 25 256 6.4 22.5 0.00 0.00 0.00 62 1010.7
20260506203028 25 296 11.3 22.5 0.00 0.00 0.00 61 1010.8
20260506203018 25 292 9.7 22.5 0.00 0.00 0.00 62 1011.1
20260506202520 26 250 11.3 22.5 0.00 0.00 0.00 62 1011.3
20260506202509 26 294 11.3 22.5 0.00 0.00 0.00 61 1011.0
20260506202017 26 225 9.7 22.5 0.00 0.00 0.00 62 1011.4
20260506202009 26 247 9.7 22.5 0.00 0.00 0.00 61 1011.1
20260506201525 26 95 6.4 27.4 0.00 0.00 0.00 62 1011.2
20260506201517 26 288 4.8 27.4 0.00 0.00 0.00 62 1011.4
20260506201015 26 246 14.5 27.4 0.00 0.00 0.00 62 1011.7
20260506201010 26 284 14.5 27.4 0.00 0.00 0.00 61 1011.3
20260506200515 26 211 8.0 19.3 0.00 0.00 0.00 63 1011.7
20260506200510 26 248 8.0 19.3 0.00 0.00 0.00 63 1011.3
20260506200030 26 233 8.0 24.1 0.00 0.00 0.00 64 1011.4
20260506200015 26 249 8.0 24.1 0.00 0.00 0.00 64 1011.7
20260506195514 26 216 11.3 25.7 0.00 0.00 0.00 63 1011.7
20260506195507 26 267 9.7 25.7 0.00 0.00 0.00 63 1011.5
20260506195015 26 183 11.3 25.7 0.00 0.00 0.00 64 1011.9
20260506195008 26 129 12.9 25.7 0.00 0.00 0.00 64 1011.7
20260506194527 26 254 6.4 16.1 0.00 0.00 0.00 65 1011.7
20260506194513 26 175 6.4 16.1 0.00 0.00 0.00 66 1012.0
20260506194015 25 245 4.8 16.1 0.00 0.00 0.00 66 1012.1
20260506194006 25 293 4.8 16.1 0.00 0.00 0.00 65 1011.8
20260506193511 25 285 6.4 16.1 0.00 0.00 0.00 67 1012.1
20260506193507 25 298 8.0 16.1 0.00 0.00 0.00 66 1011.8
20260506193028 25 96 6.4 16.1 0.00 0.00 0.00 66 1011.8
20260506193011 25 312 4.8 16.1 0.00 0.00 0.00 67 1011.9
20260506192510 25 226 3.2 16.1 0.00 0.00 0.00 67 1012.0
20260506192503 25 233 4.8 16.1 0.00 0.00 0.00 66 1011.8
20260506192010 25 171 4.8 16.1 0.00 0.00 0.00 67 1012.1
20260506192008 25 150 6.4 16.1 0.00 0.00 0.00 66 1011.8
20260506191534 25 213 4.8 14.5 0.00 0.00 0.00 67 1011.8
20260506191509 25 231 4.8 14.5 0.00 0.00 0.00 68 1012.0
20260506191009 25 169 3.2 12.9 0.00 0.00 0.00 68 1012.1
20260506191004 25 284 3.2 12.9 0.00 0.00 0.00 67 1011.8
20260506190510 25 209 4.8 19.3 0.00 0.00 0.00 68 1012.2
20260506190508 25 208 6.4 19.3 0.00 0.00 0.00 67 1012.0
20260506190030 25 311 6.4 19.3 0.00 0.00 0.00 67 1012.1
20260506190007 25 211 4.8 19.3 0.00 0.00 0.00 68 1012.2
20260506185505 25 269 8.0 17.7 0.00 0.00 0.00 67 1012.5
20260506185503 25 241 8.0 17.7 0.00 0.00 0.00 66 1012.2
20260506185012 25 261 8.0 17.7 0.00 0.00 0.00 66 1012.2
20260506185006 25 278 8.0 17.7 0.00 0.00 0.00 67 1012.5
20260506184532 25 117 6.4 20.9 0.00 0.00 0.00 66 1012.2
20260506184505 25 133 6.4 20.9 0.00 0.00 0.00 66 1012.5
20260506184007 25 280 9.7 20.9 0.00 0.00 0.00 66 1012.2
20260506184005 25 244 8.0 20.9 0.00 0.00 0.00 66 1012.5